[[{"header":{"parameterUnit":"m.s-1","parameterCategory":1,"la1":30.2991,"la2":30.254,"lo1":-89.0895,"lo2":-89.0444,"dy":0.0017,"dx":0.0017,"nx":28,"ny":28,"refTime":"2023-09-10T03:00:00:Z","depth":0,"parameterNumber":2,"parameterNumberName":"U-component_of_WINDS"},"data":[0,0,0,0,0,0,0,0,0,0,0,0,0,0,0,0,0,0,0,0,0,0,0,0,0,0,0,0,0,0,0,0,0,0,0,0,0,0,0,0,0,0,0,0,0,0,0,0,0,0,0,0,0,0,0,0,0,0,0.3388,0.3389,0,0.345,0.3451,0.3452,0.3455,0.3454,0.3453,0.3452,0.3516,0.3519,0.3521,0,0,0,0,0,0,0,0,0,0,0,0,0,0.327,0.3272,0.3388,0.3389,0.3389,0.345,0.3451,0.3452,0.3455,0.3454,0.3453,0.3452,0.3516,0.3518,0.3521,0,0,0,0,0,0,0,0,0,0,0,0,0,0.3326,0.3273,0.3388,0.3398,0.34,0.345,0.3451,0.3452,0.3455,0.3454,0.3453,0.3452,0.3515,0.3518,0.3522,0.3566,0,0,0.3533,0.3534,0,0,0,0,0,0,0,0,0.3322,0.333,0.3396,0.3397,0.3399,0.3444,0.3433,0.349,0.3455,0.3434,0.3452,0.3451,0.3493,0.3498,0.3512,0.3569,0.3572,0.3533,0.3535,0.3537,0.3538,0,0,0,0,0,0,0,0.3319,0.3327,0.3413,0.3397,0.3399,0.3399,0.3406,0.3444,0.3469,0.3436,0.3436,0.3443,0.3494,0.3509,0.3514,0.3573,0.3533,0.3536,0.3538,0.354,0.3667,0.3668,0,0,0,0,0,0,0.3313,0.3324,0.3411,0.3414,0.3357,0.3402,0.341,0.343,0.3469,0.3473,0.3444,0.3443,0.3503,0.351,0.3516,0.3569,0.3537,0.354,0.3542,0.3666,0.3667,0.3669,0,0,0,0,0,0,0.331,0.332,0.3408,0.3369,0.3381,0.3406,0.3429,0.3432,0.3448,0.3475,0.3479,0.3455,0.3503,0.3511,0.3553,0.3572,0.3542,0.3545,0.3664,0.3666,0.3668,0.3677,0,0,0,0,0,0,0.3307,0.3319,0.3337,0.337,0.3383,0.3444,0.343,0.3434,0.3454,0.3453,0.3487,0.3491,0.3503,0.3548,0.3557,0.3576,0.3548,0.3663,0.3665,0.3667,0.3675,0.3679,0.3682,0,0,0,0,0,0.3303,0.3337,0.3338,0.3348,0.3405,0.3445,0.3453,0.3465,0.3455,0.3473,0.349,0.349,0.3568,0.3552,0.3562,0.3583,0.3662,0.3665,0.3667,0.3673,0.3678,0.3682,0,0,0,0,0,0,0.3306,0.3342,0.3343,0.3389,0.3414,0.3446,0.3468,0.347,0.3499,0.3497,0.3511,0.3519,0.356,0.3576,0.3557,0.3627,0.3614,0.3619,0.3615,0.362,0.3623,0.3618,0.3551,0,0,0,0,0,0.3312,0.3342,0.3372,0.341,0.3422,0.3443,0.3461,0.3469,0.3495,0.3506,0.3527,0.3552,0.3582,0.3602,0.3632,0.3678,0.3684,0.3697,0.37,0.3703,0.3707,0.3731,0.3736,0.3678,0.3678,0.3678,0,0,0.3325,0.3348,0.3367,0.3411,0.3431,0.3462,0.3452,0.3485,0.3507,0.3511,0.3551,0.3567,0.3597,0.3641,0.3661,0.3655,0.3724,0.3706,0.3708,0.3711,0.3734,0.374,0.3744,0.368,0.3679,0.3679,0,0,0.3364,0.3385,0.3418,0.3439,0.347,0.3483,0.3491,0.3522,0.3533,0.3574,0.3577,0.3604,0.3656,0.3676,0.3694,0.3739,0.374,0.3749,0.3767,0.379,0.3794,0.3799,0.3814,0.3819,0.3753,0.3753,0.3753,0,0.3376,0.3422,0.3435,0.3468,0.3487,0.3491,0.3525,0.3544,0.3583,0.3595,0.3588,0.3653,0.3674,0.3721,0.3732,0.3747,0.3755,0.3745,0.3793,0.3797,0.3801,0.3815,0.3821,0.3753,0.3753,0.3753,0.3753,0,0.3435,0.3467,0.349,0.3527,0.3549,0.3581,0.3599,0.3619,0.3625,0.3639,0.368,0.3704,0.3738,0.375,0.3756,0.3799,0.3794,0.379,0.3777,0.3807,0.3821,0.3827,0.3754,0.3754,0.3754,0.3754,0,0,0.3478,0.3521,0.3529,0.3545,0.3579,0.3604,0.3637,0.367,0.3686,0.3713,0.374,0.3783,0.3779,0.3799,0.3807,0.3828,0.3861,0.3821,0.3822,0.3826,0.3907,0.3909,0.3916,0.3861,0.3863,0.3864,0.3904,0,0.352,0.3577,0.359,0.364,0.3668,0.3673,0.3701,0.3725,0.3738,0.3765,0.378,0.381,0.3803,0.3815,0.3835,0.3852,0.3877,0.385,0.3886,0.3887,0.3877,0.3923,0.3926,0.3963,0.391,0.3911,0.3912,0,0.3576,0.3603,0.3656,0.3684,0.3697,0.3722,0.3753,0.3778,0.3805,0.3813,0.3835,0.384,0.3874,0.3859,0.3905,0.3886,0.3902,0.3912,0.3914,0.3917,0.39,0.3926,0.3976,0.3981,0.392,0.392,0.3919,0,0.36,0.365,0.3687,0.3701,0.3737,0.3754,0.3769,0.3795,0.3813,0.384,0.3852,0.3883,0.3899,0.3922,0.3936,0.3924,0.398,0.3967,0.3987,0.3986,0.3998,0.3996,0.4049,0.401,0.401,0.4009,0.4009,0,0.3644,0.3676,0.3699,0.3722,0.3757,0.3771,0.3805,0.382,0.3843,0.3868,0.3874,0.3898,0.3915,0.3941,0.3952,0.3987,0.3995,0.4002,0.4005,0.4001,0.4,0.4011,0.4008,0.4011,0.4011,0.401,0.401,0,0.3677,0.3694,0.3735,0.3764,0.3772,0.3797,0.3822,0.3844,0.3858,0.389,0.3898,0.392,0.3951,0.3967,0.4006,0.4013,0.4052,0.4054,0.4043,0.4044,0.4062,0.406,0.4122,0.4131,0.4087,0.4087,0.4088,0,0.3704,0.3728,0.376,0.3777,0.3793,0.3821,0.384,0.3855,0.3874,0.3905,0.3923,0.3954,0.398,0.4029,0.4048,0.4077,0.4079,0.4099,0.4083,0.4078,0.4077,0.4075,0.4077,0.4101,0.4101,0.4102,0.4102,0,0.3749,0.3756,0.3783,0.3812,0.3834,0.3858,0.3882,0.3896,0.3914,0.3935,0.3967,0.3987,0.4026,0.4056,0.4087,0.4102,0.4105,0.4107,0.4113,0.4109,0.4101,0.4104,0.4049,0.4105,0.4105,0.4105,0.4104,0.4104,0.3779,0.38,0.3825,0.3855,0.3874,0.3896,0.3918,0.3934,0.396,0.3993,0.4,0.4033,0.4058,0.4099,0.4115,0.4141,0.4137,0.4146,0.4148,0.415,0.415,0.4098,0.4147,0.4147,0.4147,0.4147,0.4147,0,0.3823,0.3839,0.3866,0.3899,0.3922,0.3923,0.3949,0.3968,0.3996,0.402,0.4044,0.408,0.4109,0.413,0.416,0.4176,0.4178,0.4183,0.4182,0.4185,0.4152,0.4144,0.4181,0.4181,0.4181,0.4181,0.4181,0.4181,0.3849,0.3884,0.3894,0.3939,0.3955,0.3987,0.4002,0.4021,0.404,0.4079,0.4103,0.4117,0.4139,0.417,0.4197,0.4202,0.4212,0.4217,0.4222,0.4191,0.4188,0.4184,0.4176,0.422,0.422,0.4253,0.4253,0.4253]},{"header":{"parameterUnit":"m.s-1","parameterCategory":1,"la1":30.2991,"la2":30.254,"lo1":-89.0895,"lo2":-89.0444,"dy":0.0017,"dx":0.0017,"nx":28,"ny":28,"refTime":"2023-09-10T03:00:00:Z","depth":0,"parameterNumber":3,"parameterNumberName":"V-component_of_WINDS"},"data":[0,0,0,0,0,0,0,0,0,0,0,0,0,0,0,0,0,0,0,0,0,0,0,0,0,0,0,0,0,0,0,0,0,0,0,0,0,0,0,0,0,0,0,0,0,0,0,0,0,0,0,0,0,0,0,0,0,0,0.0821,0.082,0,0.0755,0.0754,0.0753,0.0672,0.0671,0.0669,0.0668,0.0605,0.0604,0.0604,0,0,0,0,0,0,0,0,0,0,0,0,0,0.0879,0.0879,0.0821,0.082,0.0819,0.0755,0.0754,0.0753,0.0672,0.0671,0.0669,0.0668,0.0605,0.0604,0.0604,0,0,0,0,0,0,0,0,0,0,0,0,0,0.0838,0.0878,0.0821,0.0771,0.0766,0.0755,0.0754,0.0753,0.0673,0.0671,0.0669,0.0667,0.0605,0.0604,0.0604,0.0638,0,0,0.0602,0.0601,0,0,0,0,0,0,0,0,0.084,0.0836,0.0779,0.0774,0.0768,0.072,0.0751,0.0715,0.0673,0.0708,0.0668,0.0666,0.0645,0.0641,0.0633,0.0635,0.0633,0.0601,0.0601,0.0601,0.0601,0,0,0,0,0,0,0,0.0843,0.0838,0.0795,0.0778,0.0772,0.0753,0.0745,0.0744,0.0688,0.0705,0.0699,0.0692,0.0642,0.0634,0.0631,0.0632,0.0602,0.0601,0.06,0.06,0.0659,0.0661,0,0,0,0,0,0,0.0853,0.0841,0.0797,0.0793,0.08,0.0753,0.0744,0.0737,0.0688,0.0679,0.0694,0.0688,0.0636,0.0632,0.0628,0.0665,0.0601,0.06,0.06,0.0657,0.0659,0.0661,0,0,0,0,0,0,0.0855,0.085,0.0799,0.0815,0.0807,0.0754,0.0747,0.0737,0.0729,0.0679,0.067,0.0696,0.0634,0.0629,0.0636,0.0661,0.06,0.0599,0.0655,0.0658,0.066,0.0739,0,0,0,0,0,0,0.0857,0.0851,0.0863,0.0816,0.0807,0.0808,0.0749,0.0737,0.0727,0.072,0.0679,0.067,0.0632,0.0637,0.0635,0.0659,0.0599,0.0652,0.0656,0.0659,0.0734,0.0744,0.0753,0,0,0,0,0,0.0859,0.0888,0.0864,0.0859,0.082,0.0809,0.0804,0.0759,0.073,0.0742,0.071,0.0671,0.0659,0.0639,0.0636,0.066,0.065,0.0655,0.0659,0.0729,0.0742,0.0753,0,0,0,0,0,0,0.0941,0.0881,0.0853,0.0868,0.0844,0.0795,0.0809,0.0774,0.0759,0.0752,0.0698,0.069,0.0703,0.0682,0.0661,0.0691,0.0649,0.0653,0.0703,0.0715,0.0725,0.0729,0.0598,0,0,0,0,0,0.0961,0.0956,0.0904,0.0922,0.0912,0.0863,0.0856,0.0823,0.0797,0.0787,0.0755,0.0732,0.0723,0.0718,0.0707,0.073,0.072,0.0746,0.0755,0.0763,0.0767,0.0778,0.0789,0.0676,0.0676,0.0676,0,0,0.1002,0.0968,0.0969,0.0938,0.0915,0.0912,0.0855,0.0854,0.0851,0.0787,0.0791,0.0767,0.0738,0.0753,0.0758,0.0736,0.0796,0.0769,0.0776,0.0775,0.0784,0.0794,0.0804,0.0679,0.0679,0.0678,0,0,0.1074,0.1048,0.106,0.1039,0.1005,0.0972,0.0975,0.0931,0.0913,0.0915,0.0867,0.0864,0.0849,0.083,0.0818,0.0883,0.0847,0.0881,0.0931,0.0942,0.0951,0.0959,0.0981,0.099,0.0885,0.0886,0.0886,0,0.1129,0.1121,0.1071,0.1073,0.1061,0.1001,0.1013,0.0995,0.096,0.0954,0.0929,0.0909,0.0885,0.0895,0.0911,0.0903,0.0905,0.0885,0.0954,0.0961,0.0967,0.0988,0.0997,0.089,0.0889,0.0889,0.0889,0,0.1191,0.1186,0.12,0.1166,0.1155,0.1163,0.1115,0.111,0.1079,0.1049,0.1053,0.1022,0.1003,0.1003,0.0973,0.1008,0.0996,0.0963,0.092,0.0983,0.1002,0.101,0.0896,0.0895,0.0893,0.0892,0,0,0.1312,0.125,0.1256,0.124,0.1198,0.1194,0.1199,0.1179,0.1176,0.1154,0.1157,0.1146,0.1115,0.1102,0.1069,0.1079,0.1132,0.1045,0.1044,0.1062,0.1169,0.1193,0.1203,0.1108,0.1109,0.111,0.1171,0,0.1377,0.1379,0.1335,0.135,0.1345,0.1289,0.1293,0.1268,0.1241,0.1233,0.1203,0.1196,0.1157,0.1148,0.1155,0.1124,0.1153,0.1119,0.111,0.1111,0.1119,0.1213,0.1239,0.1298,0.1178,0.118,0.1181,0,0.1452,0.1432,0.1447,0.1404,0.14,0.1405,0.1383,0.1376,0.1348,0.1327,0.1312,0.1274,0.1276,0.1236,0.1239,0.1217,0.1211,0.1195,0.1196,0.1193,0.1149,0.1213,0.1316,0.1325,0.1192,0.1191,0.119,0,0.1539,0.1517,0.1522,0.151,0.146,0.1465,0.1444,0.1413,0.1404,0.1386,0.1379,0.1362,0.1353,0.1341,0.1299,0.1273,0.1307,0.1263,0.129,0.1291,0.1299,0.1299,0.1402,0.1296,0.1296,0.1296,0.1296,0,0.1615,0.1626,0.156,0.1564,0.1575,0.1524,0.1537,0.1511,0.1484,0.1482,0.1433,0.1433,0.1378,0.1372,0.134,0.1347,0.1343,0.1327,0.1318,0.1331,0.1333,0.1326,0.1321,0.1298,0.1298,0.1297,0.1297,0,0.1713,0.167,0.1672,0.1624,0.1613,0.1623,0.1582,0.1584,0.1553,0.1552,0.1549,0.1501,0.1491,0.1448,0.1429,0.1407,0.1425,0.1408,0.1434,0.1428,0.1458,0.1455,0.156,0.1571,0.1458,0.146,0.1461,0,0.1764,0.1771,0.1724,0.1718,0.17,0.1692,0.1682,0.1633,0.1625,0.1592,0.1598,0.1584,0.157,0.1557,0.1521,0.1506,0.1488,0.1525,0.1485,0.1498,0.1488,0.1488,0.1488,0.1534,0.1536,0.1537,0.1538,0,0.1859,0.1837,0.1824,0.1804,0.1793,0.1775,0.1754,0.1752,0.1697,0.1691,0.1679,0.1669,0.1648,0.1635,0.1613,0.1593,0.1557,0.1551,0.1556,0.1569,0.1584,0.1576,0.1457,0.1548,0.1547,0.1547,0.1546,0.1546,0.1935,0.1938,0.1905,0.1892,0.1871,0.1853,0.1852,0.182,0.1809,0.1788,0.176,0.1752,0.1723,0.169,0.1673,0.1667,0.1647,0.1655,0.1656,0.1659,0.1665,0.1585,0.1663,0.1663,0.1663,0.1662,0.1662,0,0.2027,0.2003,0.1991,0.1963,0.1953,0.1918,0.1893,0.1887,0.1881,0.1856,0.1843,0.183,0.1817,0.178,0.1763,0.1766,0.1748,0.1763,0.1762,0.1758,0.1685,0.1682,0.1777,0.1777,0.1777,0.1777,0.1777,0.1777,0.2074,0.2077,0.2051,0.2044,0.202,0.2011,0.2,0.1983,0.1963,0.195,0.1938,0.1914,0.1885,0.1865,0.1852,0.1842,0.1838,0.1858,0.1842,0.1774,0.1763,0.1753,0.1749,0.1857,0.1858,0.1915,0.1916,0.1916]}]]